1499403601.03,10912,16.56,74262.8,5.89,2.69,3.25,0,*7B
1499403602.27,10913,16.56,74256.5,5.85,3.19,3.67,0,*76
1499403603.47,10914,16.56,74262.8,5.85,3.63,3.89,0,*7C
1499403604.7,10915,16.56,74264.8,5.83,3.75,3.97,0,*73
1499403605.87,10916,16.56,74266.0,5.83,3.85,4.11,0,*76
1499403607.07,10917,16.56,74264.0,5.85,4.33,4.45,0,*7A
1499403608.25,10918,16.56,74270.3,5.83,4.37,4.45,0,*77
1499403609.5,10919,16.56,74272.8,5.85,4.59,4.71,0,*7F
1499403610.76,10920,16.56,74272.3,5.89,4.97,5.05,0,*79
1499403612.0,10921,16.56,74268.3,5.89,4.59,4.53,0,*78
1499403613.26,10922,16.56,74264.3,5.89,4.75,4.75,0,*71
1499403614.52,10923,16.56,74246.5,5.89,4.97,4.93,0,*74
1499403615.71,10924,16.56,74254.3,5.91,4.57,4.57,0,*7E
1499403616.89,10925,16.56,74268.8,5.91,4.27,4.27,0,*7F
1499403618.08,10926,16.56,74276.8,5.91,4.41,4.37,0,*7D
1499403619.34,10927,16.56,74274.8,5.93,4.67,4.67,0,*7F
1499403620.58,10928,16.56,74266.5,5.91,4.75,4.75,0,*72
1499403621.82,10929,16.56,74260.8,5.91,4.79,4.79,0,*73
1499403623.06,10930,16.56,74282.0,5.91,5.01,5.01,0,*7B
1499403624.28,10931,16.56,74282.8,5.91,4.89,4.97,0,*75
1499403625.54,10932,16.56,74282.8,5.93,4.79,4.79,0,*7B
1499403626.81,10933,16.56,74276.5,5.93,4.97,4.97,0,*7A
1499403628.0,10934,16.56,74278.8,5.95,5.11,5.15,0,*7F
1499403629.22,10935,16.56,74278.8,5.93,5.19,5.19,0,*7C
1499403630.43,10936,16.56,74278.3,5.97,5.11,5.11,0,*7B
1499403631.64,10937,16.56,74272.0,5.97,5.15,5.11,0,*7E
1499403632.86,10938,16.56,74278.8,5.97,5.11,5.11,0,*75
1499403634.07,10939,16.56,74282.8,5.97,5.11,5.11,0,*74
1499403635.31,10940,16.56,74288.8,5.97,5.05,5.11,0,*7F
1499403636.55,10941,16.56,74282.8,5.99,4.63,4.63,0,*75
1499403637.79,10942,16.56,74278.5,5.99,4.59,4.63,0,*7F
1499403639.03,10943,16.56,74280.5,5.99,4.71,4.63,0,*74
1499403640.29,10944,16.56,74286.3,5.97,4.67,4.67,0,*7E
1499403641.54,10945,16.56,74290.8,5.99,4.71,4.71,0,*71
1499403642.81,10946,16.56,74290.3,5.97,4.71,4.79,0,*74
1499403644.04,10947,16.56,74296.5,5.99,4.63,4.63,0,*73
1499403645.3,10948,16.56,74284.3,5.97,4.67,4.67,0,*72
1499403646.55,10949,16.56,74286.8,5.99,4.71,4.71,0,*7D
1499403647.79,10950,16.56,74286.0,5.99,4.63,4.63,0,*75
1499403649.03,10951,16.56,74292.0,5.99,4.71,4.71,0,*74
1499403650.28,10952,16.56,74298.5,5.99,4.75,4.71,0,*73
1499403651.46,10953,16.56,74290.0,5.99,4.85,4.81,0,*72
1499403652.69,10954,16.56,74292.5,5.99,4.63,4.63,0,*71
1499403653.87,10955,16.56,74292.3,5.99,4.57,4.49,0,*7F
1499403655.09,10956,16.56,74296.8,5.99,4.59,4.53,0,*79
1499403656.3,10957,16.56,74292.5,5.97,4.57,4.57,0,*7C
1499403657.55,10958,16.56,74296.3,5.97,4.59,4.59,0,*73
1499403658.8,10959,16.56,74298.0,5.99,4.71,4.71,0,*7C
1499403659.99,10960,16.56,74296.3,5.99,4.85,4.85,0,*76
1499403661.23,10961,16.56,74290.0,5.99,4.75,4.75,0,*77
1499403662.46,10962,16.56,74288.3,5.99,4.63,4.63,0,*74
1499403663.64,10963,16.56,74286.8,5.99,4.81,4.81,0,*75
1499403664.89,10964,16.56,74286.5,5.99,4.71,4.63,0,*71
1499403666.13,10965,16.56,74282.8,5.99,4.75,4.71,0,*77
1499403667.39,10966,16.56,74286.0,5.97,4.79,4.71,0,*76
1499403668.63,10967,16.56,74290.5,5.99,4.59,4.59,0,*71
1499403669.83,10968,16.56,74298.3,5.97,4.49,4.57,0,*7F
1499403671.08,10969,16.56,74304.0,5.99,4.71,4.63,0,*7C
1499403672.29,10970,16.56,74300.3,5.99,4.59,4.53,0,*7D
1499403673.53,10971,16.56,74292.3,5.99,4.59,4.59,0,*76
1499403674.74,10972,16.56,74282.8,5.99,4.59,4.49,0,*74
1499403675.93,10973,16.56,74290.0,5.99,4.37,4.37,0,*74
1499403677.17,10974,16.56,74294.5,5.99,4.59,4.59,0,*73
1499403678.41,10975,16.56,74292.5,5.99,4.71,4.71,0,*72
1499403679.61,10976,16.56,74292.3,5.97,4.49,4.49,0,*7F
1499403680.8,10977,16.56,74300.3,5.99,4.53,4.53,0,*70
1499403682.0,10978,16.56,74294.0,5.97,4.49,4.45,0,*7D
1499403683.2,10979,16.56,74290.3,5.97,4.49,4.49,0,*70
1499403684.41,10980,16.56,74286.3,5.97,4.57,4.49,0,*79
1499403685.61,10981,16.56,74282.8,5.97,4.49,4.49,0,*77
1499403686.79,10982,16.56,74278.8,5.99,4.49,4.45,0,*76
1499403687.99,10983,16.56,74276.8,5.97,4.23,4.23,0,*75
1499403689.2,10984,16.56,74280.8,5.95,4.23,4.31,0,*73
1499403690.39,10985,16.56,74284.5,5.95,4.41,4.45,0,*75
1499403691.62,10986,16.56,74280.8,5.97,4.31,4.23,0,*73
1499403692.83,10987,16.56,74282.3,5.97,4.23,4.11,0,*70
1499403694.04,10988,16.56,74284.0,5.97,4.45,4.41,0,*7A
1499403695.23,10989,16.56,74288.8,5.95,4.41,4.41,0,*7D
1499403696.45,10990,16.56,74288.8,5.93,4.37,4.37,0,*73
1499403697.68,10991,16.56,74282.0,5.93,3.97,3.85,0,*71
1499403698.89,10992,16.56,74280.5,5.93,3.93,3.85,0,*76
1499403700.09,10993,16.56,74286.5,5.93,4.19,4.19,0,*70
1499403701.27,10994,16.56,74284.0,5.91,4.19,4.19,0,*75
1499403702.46,10995,16.56,74294.8,5.91,4.41,4.37,0,*75
1499403703.67,10996,16.56,74294.8,5.91,4.31,4.27,0,*70
1499403704.85,10997,16.56,74288.3,5.91,4.19,4.15,0,*7A
1499403706.04,10998,16.56,74284.0,5.91,4.41,4.41,0,*79
1499403707.23,10999,16.56,74288.8,5.91,4.45,4.41,0,*7C
1499403708.41,11000,16.56,74296.3,5.91,4.57,4.53,0,*74
1499403709.62,11001,16.56,74290.8,5.89,4.41,4.37,0,*79
1499403710.8,11002,16.56,74278.3,5.91,4.27,4.19,0,*7F
1499403712.01,11003,16.56,74276.0,5.89,4.33,4.37,0,*7E
1499403713.22,11004,16.56,74284.8,5.89,4.33,4.33,0,*7D
1499403714.41,11005,16.56,74290.5,5.91,4.41,4.37,0,*74
1499403715.62,11006,16.56,74294.8,5.89,4.49,4.41,0,*77
1499403716.83,11007,16.56,74298.5,5.89,4.37,4.33,0,*7A
1499403718.03,11008,16.56,74296.5,5.89,4.49,4.53,0,*7A
1499403719.25,11009,16.56,74298.3,5.91,4.05,3.93,0,*71
1499403720.45,11010,16.56,74300.0,5.89,4.11,4.11,0,*78
1499403721.71,11011,16.56,74300.3,5.89,3.33,3.33,0,*79
1499403722.96,11012,16.56,74298.5,5.85,3.75,3.75,0,*76
1499403724.16,11013,16.56,74302.8,5.83,3.97,3.89,0,*7E
1499403725.33,11014,16.56,74296.3,5.83,3.85,3.85,0,*76
1499403726.51,11015,16.56,74294.5,5.83,3.89,3.85,0,*7B
1499403727.68,11016,16.56,74290.8,5.79,3.85,3.81,0,*75
1499403728.88,11017,16.56,74298.0,5.83,3.89,3.79,0,*7A
1499403730.08,11018,16.56,74300.8,5.83,3.85,3.79,0,*79
1499403731.28,11019,16.56,74294.5,5.83,3.85,3.79,0,*78
1499403732.47,11020,16.56,74302.0,5.79,3.97,3.85,0,*77
1499403733.72,11021,16.56,74300.0,5.81,4.05,3.97,0,*7E
1499403734.92,11022,16.56,74302.3,5.79,4.07,3.97,0,*78
1499403736.12,11023,16.56,74296.0,5.79,4.15,4.05,0,*76
1499403737.29,11024,16.56,74298.3,5.79,3.81,3.81,0,*70
1499403738.53,11025,16.56,74294.5,5.81,3.97,3.97,0,*76
1499403739.7,11026,16.56,74296.3,5.79,4.19,4.15,0,*7E
1499403740.93,11027,16.56,74292.8,5.79,4.05,3.97,0,*7F
1499403742.16,11028,16.56,74290.5,5.79,4.31,4.31,0,*7C
1499403743.35,11029,16.56,74282.8,5.81,4.53,4.53,0,*7A
1499403744.53,11030,16.56,74278.0,5.79,4.57,4.53,0,*71
1499403745.72,11031,16.56,74278.3,5.81,4.45,4.41,0,*77
1499403746.9,11032,16.56,74276.8,5.79,4.45,4.33,0,*76
1499403748.12,11033,16.56,74282.0,5.79,4.31,3.97,0,*7D
1499403749.29,11034,16.56,74280.0,5.79,4.27,3.85,0,*7E
1499403750.52,11035,16.56,74282.0,5.79,4.05,3.71,0,*74
1499403751.7,11036,16.56,74294.3,5.79,3.93,3.25,0,*7E
1499403752.93,11037,16.5,74296.3,5.81,3.75,2.61,0,*71
1499403754.17,11038,16.56,74312.0,5.81,3.49,1.37,0,*71
1499403755.36,11039,16.56,74310.8,5.79,2.01,0.09,0,*76
1499403756.55,11040,16.56,74294.0,5.79,0.63,-0.65,0,*59
1499403757.76,11041,16.56,74280.3,5.79,0.51,-0.89,0,*5B
1499403758.95,11042,16.56,74274.3,5.79,0.37,-2.15,0,*6F
1499403760.16,11043,16.56,74270.5,5.79,-1.47,-3.15,0,*74
1499403761.37,11044,16.56,74264.8,5.75,-2.35,-1.05,0,*7A
1499403762.61,11045,16.56,74268.8,5.77,-0.27,0.21,0,*52
1499403763.84,11046,16.56,74286.3,5.77,-0.65,-2.03,0,*48
1499403765.07,11047,16.56,74288.3,5.77,-2.31,-1.95,0,*76
1499403766.27,11048,16.56,74280.8,5.77,-3.03,-2.27,0,*73
1499403767.5,11049,16.56,74280.8,5.77,-3.03,-1.95,0,*78
1499403768.73,11050,16.56,74288.3,5.77,-2.71,-0.41,0,*4C
1499403769.98,11051,16.56,74294.5,5.77,-1.91,1.13,0,*5B
1499403771.17,11052,16.56,74290.0,5.75,-0.07,1.85,0,*5B
1499403772.42,11053,16.56,74296.8,5.77,1.63,1.51,0,*7F
1499403773.66,11054,16.56,74290.3,5.77,1.89,0.83,0,*42
1499403774.88,11055,16.56,74282.8,5.77,2.17,1.75,0,*7F
1499403776.14,11056,16.56,74300.0,5.77,2.17,1.85,0,*73
1499403777.36,11057,16.56,74298.8,5.79,2.17,1.89,0,*70
1499403778.6,11058,16.56,74300.3,5.81,1.93,2.21,0,*76
1499403779.82,11059,16.56,74296.8,5.79,1.89,3.15,0,*7D
1499403781.0,11060,16.56,74298.5,5.79,2.91,3.81,0,*70
1499403782.17,11061,16.56,74294.0,5.79,3.59,4.15,0,*7E
1499403783.37,11062,16.56,74286.8,5.81,4.07,4.41,0,*77
1499403784.55,11063,16.56,74286.8,5.79,4.33,4.41,0,*76
1499403785.74,11064,16.56,74288.3,5.81,4.41,4.45,0,*77
1499403786.98,11065,16.56,74290.0,5.81,3.97,3.97,0,*72
1499403788.24,11066,16.56,74284.5,5.81,4.31,4.31,0,*71
1499403789.46,11067,16.56,74280.3,5.83,4.59,4.59,0,*72
1499403790.69,11068,16.56,74286.5,5.83,4.79,4.67,0,*72
1499403791.92,11069,16.56,74288.5,5.83,4.79,4.71,0,*74
1499403793.14,11070,16.56,74300.0,5.85,4.67,4.49,0,*7E
1499403794.33,11071,16.56,74304.5,5.83,4.45,4.01,0,*75
1499403795.52,11072,16.56,74302.0,5.85,4.23,3.59,0,*7A
1499403796.75,11073,16.56,74290.8,5.85,3.85,2.81,0,*74
1499403797.99,11074,16.56,74292.5,5.85,2.85,2.05,0,*7E
1499403799.21,11075,16.56,74284.3,5.85,1.93,1.83,0,*76
1499403800.45,11076,16.56,74286.3,5.83,1.21,2.25,0,*75
1499403801.67,11077,16.5,74272.5,5.83,1.47,3.03,0,*71
1499403802.9,11078,16.56,74266.5,5.83,2.85,3.41,0,*75
1499403804.1,11079,16.56,74268.0,5.83,3.25,3.37,0,*7E
1499403805.3,11080,16.56,74272.5,5.83,3.49,3.29,0,*7D
1499403806.49,11081,16.56,74282.0,5.81,3.63,3.55,0,*7D
1499403807.68,11082,16.56,74284.0,5.81,3.63,3.55,0,*7E
1499403808.87,11083,16.56,74286.5,5.79,3.97,3.59,0,*7F
1499403810.07,11084,16.56,74280.8,5.79,3.71,3.25,0,*7B
1499403811.26,11085,16.56,74282.5,5.79,3.33,2.91,0,*72
1499403812.46,11086,16.56,74278.8,5.79,3.25,3.23,0,*7E
1499403813.66,11087,16.56,74270.5,5.83,3.79,3.63,0,*77
1499403814.88,11088,16.56,74270.3,5.81,3.75,3.59,0,*7F
1499403816.1,11089,16.56,74266.8,5.81,3.63,3.71,0,*73
1499403817.35,11090,16.56,74284.8,5.81,3.71,3.97,0,*70
1499403818.54,11091,16.56,74288.0,5.81,3.93,4.15,0,*70
1499403819.75,11092,16.56,74266.0,5.83,3.75,4.23,0,*7C
1499403820.95,11093,16.56,74258.5,5.83,4.01,4.37,0,*7C
1499403822.13,11094,16.56,74272.8,5.83,4.23,4.37,0,*7B
1499403823.34,11095,16.56,74278.5,5.83,4.31,4.45,0,*7C
1499403824.56,11096,16.56,74284.5,5.85,4.23,4.31,0,*79
1499403825.75,11097,16.56,74290.8,5.85,3.85,4.23,0,*70
1499403826.97,11098,16.56,74304.8,5.85,3.67,4.11,0,*72
1499403828.22,11099,16.56,74302.3,5.85,3.53,4.31,0,*76
1499403829.41,11100,16.56,74276.5,5.85,3.59,4.33,0,*7F
1499403830.63,11101,16.56,74294.5,5.89,3.53,4.27,0,*7D
1499403831.87,11102,16.56,74292.0,5.91,3.23,4.05,0,*70
1499403833.12,11103,16.56,74288.8,5.89,2.85,4.01,0,*71
1499403834.39,11104,16.56,74292.0,5.89,3.07,4.05,0,*79
1499403835.59,11105,16.56,74288.3,5.91,3.55,4.31,0,*71
1499403836.77,11106,16.56,74278.5,5.91,3.81,4.27,0,*7C
1499403837.98,11107,16.56,74278.5,5.89,3.81,4.15,0,*75
1499403839.21,11108,16.56,74280.0,5.89,4.05,4.19,0,*7D
1499403840.41,11109,16.56,74284.3,5.89,4.15,4.15,0,*71
1499403841.62,11110,16.56,74278.0,5.89,4.53,4.53,0,*79
1499403842.83,11111,16.56,74260.5,5.91,4.57,4.63,0,*76
1499403844.04,11112,16.56,74270.8,5.91,4.63,4.57,0,*75
1499403845.26,11113,16.56,74272.8,5.91,4.27,4.31,0,*74
1499403846.48,11114,16.56,74276.3,5.91,4.05,4.07,0,*76
1499403847.68,11115,16.56,74268.5,5.89,4.11,4.11,0,*7C
1499403848.88,11116,16.56,74270.3,5.89,4.11,4.11,0,*7F
1499403850.09,11117,16.56,74266.3,5.89,4.11,4.11,0,*7E
1499403851.32,11118,16.56,74262.0,5.89,4.01,3.93,0,*7D
1499403852.57,11119,16.56,74260.3,5.89,4.05,4.01,0,*74
1499403853.78,11120,16.56,74264.5,5.89,4.15,4.11,0,*7E
1499403854.98,11121,16.56,74262.5,5.89,4.49,4.41,0,*73
1499403856.17,11122,16.56,74266.0,5.85,4.57,4.49,0,*7B
1499403857.37,11123,16.56,74272.0,5.89,4.49,4.49,0,*79
1499403858.57,11124,16.56,74266.5,5.83,4.33,4.31,0,*76
1499403859.77,11125,16.56,74252.0,5.85,4.45,4.45,0,*73
1499403860.97,11126,16.56,74256.0,5.85,4.45,4.37,0,*75
1499403862.21,11127,16.56,74276.0,5.85,3.97,3.97,0,*71
1499403863.4,11128,16.56,74280.5,5.85,4.23,4.19,0,*77
1499403864.6,11129,16.56,74286.0,5.85,4.33,4.33,0,*7F
1499403865.79,11130,16.56,74286.8,5.85,4.11,4.11,0,*77
1499403866.98,11131,16.56,74288.5,5.85,4.45,4.45,0,*76
1499403868.16,11132,16.56,74292.8,5.83,4.45,4.45,0,*73
1499403869.33,11133,16.56,74304.8,5.83,4.49,4.49,0,*72
1499403870.5,11134,16.56,74310.0,5.83,4.45,4.37,0,*70
1499403871.68,11135,16.56,74308.0,5.83,4.45,4.45,0,*74
1499403872.88,11136,16.56,74308.5,5.83,4.59,4.49,0,*76
1499403874.06,11137,16.56,74306.3,5.83,4.37,4.33,0,*72
1499403875.26,11138,16.56,74298.0,5.83,3.97,3.89,0,*76
1499403876.49,11139,16.56,74290.3,5.83,3.75,3.67,0,*7B
1499403877.69,11140,16.56,74294.5,5.83,3.63,3.67,0,*72
1499403878.93,11141,16.56,74294.8,5.85,3.79,3.79,0,*71
1499403880.15,11142,16.56,74292.0,5.81,3.63,3.71,0,*75
1499403881.35,11143,16.56,74292.8,5.81,3.81,3.81,0,*77
1499403882.55,11144,16.56,74300.3,5.79,3.63,3.71,0,*74
1499403883.75,11145,16.56,74280.8,5.79,3.97,3.93,0,*72
1499403884.97,11146,16.56,74290.0,5.79,4.05,3.97,0,*79
1499403886.17,11147,16.56,74294.8,5.75,3.85,3.75,0,*77
1499403887.39,11148,16.56,74300.8,5.77,4.01,3.89,0,*72
1499403888.57,11149,16.56,74300.0,5.79,3.93,3.93,0,*7A
1499403889.74,11150,16.56,74294.5,5.75,4.11,4.11,0,*7E
1499403890.96,11151,16.56,74260.3,5.77,4.31,4.27,0,*7A
1499403892.13,11152,16.56,74262.3,5.75,4.27,4.27,0,*7C
1499403893.31,11153,16.56,74252.5,5.75,4.45,4.37,0,*78
1499403894.47,11154,16.56,74258.3,5.75,4.33,4.27,0,*7F
1499403895.68,11155,16.56,74268.0,5.77,4.37,4.37,0,*79
1499403896.86,11156,16.56,74274.5,5.75,4.33,4.33,0,*78
1499403898.03,11157,16.56,74276.5,5.75,4.45,4.57,0,*7A
1499403899.21,11158,16.56,74280.8,5.75,4.27,4.23,0,*72
1499403900.37,11159,16.56,74278.0,5.75,4.23,4.27,0,*73
1499403901.54,11160,16.56,74284.3,5.75,4.27,4.19,0,*70
1499403902.72,11161,16.56,74280.8,5.75,4.27,4.27,0,*7C
1499403903.93,11162,16.56,74280.8,5.75,4.01,3.97,0,*77
1499403905.16,11163,16.56,74282.3,5.75,3.79,3.97,0,*7E
1499403906.36,11164,16.56,74286.0,5.73,4.11,4.07,0,*78
1499403907.53,11165,16.56,74282.5,5.75,4.33,4.33,0,*78
1499403908.71,11166,16.56,74286.8,5.75,4.27,4.23,0,*7F
1499403909.88,11167,16.56,74292.5,5.75,4.19,4.19,0,*7A
1499403911.05,11168,16.56,74292.5,5.75,4.23,4.23,0,*75
1499403912.22,11169,16.56,74290.8,5.75,4.33,4.33,0,*74
1499403913.39,11170,16.56,74286.8,5.75,4.19,4.27,0,*71
1499403914.59,11171,16.56,74290.3,5.73,4.33,4.33,0,*7B
1499403915.78,11172,16.56,74296.0,5.73,4.19,4.19,0,*78
1499403916.98,11173,16.56,74296.0,5.71,4.07,4.01,0,*7D
1499403918.2,11174,16.56,74296.3,5.71,3.97,4.05,0,*70
1499403919.37,11175,16.56,74280.8,5.71,4.07,4.07,0,*7D
1499403920.57,11176,16.56,74280.3,5.71,4.07,4.05,0,*7C
1499403921.74,11177,16.56,74284.0,5.71,4.15,4.19,0,*73
1499403922.96,11178,16.56,74284.3,5.71,4.05,4.05,0,*70
1499403924.18,11179,16.56,74278.3,5.71,4.05,3.97,0,*7D
1499403925.38,11180,16.56,74280.8,5.71,3.97,3.93,0,*73
1499403926.55,11181,16.56,74278.3,5.71,4.07,4.07,0,*76
1499403927.73,11182,16.56,74282.8,5.67,4.15,4.15,0,*72
1499403928.92,11183,16.56,74276.8,5.67,4.11,4.01,0,*72
1499403930.12,11184,16.56,74286.0,5.69,4.15,4.07,0,*79
1499403931.29,11185,16.56,74276.8,5.67,4.27,4.19,0,*78
1499403932.48,11186,16.56,74286.0,5.69,4.23,4.19,0,*71
1499403933.71,11187,16.56,74284.5,5.69,4.31,4.23,0,*7A
1499403934.93,11188,16.56,74270.5,5.69,4.33,4.31,0,*74
1499403936.11,11189,16.56,74246.5,5.67,4.37,4.37,0,*79
1499403937.31,11190,16.56,74240.5,5.67,4.11,4.05,0,*74
1499403938.56,11191,16.56,74252.3,5.69,4.05,3.97,0,*72
1499403939.73,11192,16.56,74248.0,5.67,4.15,4.19,0,*7F
1499403940.93,11193,16.56,74256.3,5.67,4.01,3.93,0,*7E
1499403942.1,11194,16.56,74294.5,5.67,4.11,4.11,0,*75
1499403943.27,11195,16.56,74296.8,5.67,4.27,4.15,0,*75
1499403944.44,11196,16.56,74290.5,5.67,4.27,4.27,0,*77
1499403945.63,11197,16.56,74290.8,5.67,4.37,4.37,0,*76
1499403946.83,11198,16.56,74286.8,5.67,4.37,4.31,0,*7F
1499403948.0,11199,16.56,74290.5,5.67,4.37,4.27,0,*79
1499403949.19,11200,16.56,74294.0,5.67,4.37,4.37,0,*7B
1499403950.36,11201,16.56,74298.3,5.67,4.41,4.41,0,*7A
1499403951.54,11202,16.56,74300.8,5.67,4.41,4.41,0,*79
1499403952.74,11203,16.56,74296.8,5.69,4.53,4.53,0,*76
1499403953.93,11204,16.56,74292.5,5.69,4.45,4.41,0,*75
1499403955.11,11205,16.56,74294.0,5.67,4.49,4.37,0,*77
1499403956.28,11206,16.56,74294.8,5.67,4.53,4.49,0,*76
1499403957.47,11207,16.56,74292.8,5.69,4.53,4.45,0,*75
1499403958.65,11208,16.56,74292.8,5.67,4.41,4.41,0,*73
1499403959.84,11209,16.56,74300.5,5.69,4.45,4.45,0,*7C
1499403961.04,11210,16.56,74302.3,5.69,4.45,4.41,0,*70
1499403962.22,11211,16.56,74300.8,5.71,4.33,4.33,0,*7C
1499403963.42,11212,16.56,74300.5,5.69,4.33,4.41,0,*73
1499403964.59,11213,16.56,74296.5,5.67,4.27,4.27,0,*79
1499403965.81,11214,16.56,74298.3,5.69,4.41,4.31,0,*77
1499403967.0,11215,16.56,74304.8,5.69,4.45,4.45,0,*71
1499403968.21,11216,16.56,74306.3,5.67,4.37,4.31,0,*7A
1499403969.41,11217,16.56,74304.3,5.69,4.33,4.33,0,*73
1499403970.6,11218,16.56,74304.8,5.67,4.31,4.27,0,*75
1499403971.77,11219,16.56,74310.0,5.67,4.27,4.27,0,*73
1499403972.95,11220,16.56,74310.3,5.67,4.49,4.41,0,*71
1499403974.12,11221,16.56,74312.8,5.67,4.41,4.41,0,*78
1499403975.29,11222,16.56,74318.0,5.67,4.49,4.49,0,*7B
1499403976.48,11223,16.56,74316.0,5.69,4.53,4.45,0,*73
1499403977.66,11224,16.56,74320.0,5.67,4.41,4.41,0,*7D
1499403978.83,11225,16.56,74312.0,5.67,4.49,4.41,0,*74
1499403980.01,11226,16.56,74304.3,5.67,4.41,4.37,0,*7E
1499403981.18,11227,16.56,74308.0,5.67,4.49,4.37,0,*77
1499403982.35,11228,16.56,74296.3,5.67,4.53,4.49,0,*7A
1499403983.53,11229,16.56,74298.3,5.67,4.37,4.37,0,*70
1499403984.7,11230,16.56,74300.8,5.67,4.49,4.49,0,*78
1499403985.92,11231,16.56,74302.3,5.69,4.63,4.57,0,*70
1499403987.15,11232,16.56,74300.0,5.69,4.33,4.31,0,*76
1499403988.4,11233,16.56,74304.0,5.69,4.31,4.31,0,*75
1499403989.59,11234,16.56,74308.5,5.69,4.15,4.19,0,*7E
1499403990.81,11235,16.56,74306.5,5.69,4.23,4.31,0,*70
1499403991.98,11236,16.56,74308.8,5.67,4.11,4.11,0,*7E
1499403993.16,11237,16.56,74318.8,5.67,4.11,4.15,0,*7B
1499403994.33,11238,16.56,74318.5,5.63,4.23,4.23,0,*74
1499403995.51,11239,16.56,74322.8,5.63,4.37,4.33,0,*71
1499403996.71,11240,16.56,74322.8,5.67,4.37,4.31,0,*79
1499403997.89,11241,16.56,74322.5,5.67,4.41,4.41,0,*7E
1499403999.07,11242,16.56,74324.0,5.67,4.37,4.37,0,*7D
1499404000.26,11243,16.56,74320.8,5.67,4.37,4.37,0,*7C
1499404001.48,11244,16.56,74318.5,5.67,4.31,4.31,0,*7B
1499404002.65,11245,16.56,74314.3,5.67,4.27,4.27,0,*7A
1499404003.88,11246,16.56,74304.8,5.69,4.33,4.31,0,*75
1499404005.05,11247,16.56,74308.5,5.67,4.41,4.37,0,*79
1499404006.24,11248,16.56,74310.0,5.67,4.37,4.37,0,*77
1499404007.46,11249,16.56,74310.5,5.67,4.31,4.31,0,*76
1499404008.69,11250,16.56,74294.8,5.67,4.31,4.31,0,*7E
1499404009.9,11251,16.56,74292.5,5.67,4.31,4.37,0,*79
1499404011.12,11252,16.56,74290.5,5.71,4.63,4.67,0,*7F
1499404012.3,11253,16.56,74302.0,5.67,4.41,4.41,0,*7D
1499404013.47,11254,16.56,74298.3,5.67,4.53,4.53,0,*7A
1499404014.67,11255,16.56,74294.5,5.69,4.53,4.53,0,*75
1499404015.92,11256,16.56,74296.0,5.69,4.75,4.79,0,*7A
1499404017.17,11257,16.56,74302.5,5.69,4.75,4.75,0,*77
1499404018.42,11258,16.56,74300.3,5.69,4.67,4.63,0,*7C
1499404019.67,11259,16.56,74302.5,5.69,4.67,4.75,0,*7A
1499404020.9,11260,16.56,74306.3,5.67,4.75,4.75,0,*7D
1499404022.12,11261,16.56,74314.5,5.69,4.97,4.89,0,*7D
1499404023.31,11262,16.56,74320.3,5.69,4.89,4.89,0,*71
1499404024.54,11263,16.56,74316.8,5.71,4.79,4.75,0,*75
1499404025.73,11264,16.56,74314.8,5.73,4.89,4.89,0,*7C
1499404026.93,11265,16.56,74312.8,5.71,5.05,5.07,0,*7D
1499404028.11,11266,16.56,74314.8,5.71,5.07,5.07,0,*7C
1499404029.36,11267,16.56,74316.5,5.73,5.05,5.05,0,*7F
1499404030.58,11268,16.56,74314.0,5.73,4.93,4.89,0,*7B
1499404031.77,11269,16.56,74308.8,5.73,4.89,4.81,0,*79
1499404032.98,11270,16.56,74310.5,5.75,4.89,4.79,0,*70
1499404034.15,11271,16.56,74312.8,5.75,4.89,4.81,0,*76
1499404035.38,11272,16.56,74312.0,5.75,5.01,5.01,0,*7D
1499404036.58,11273,16.56,74310.5,5.77,5.11,5.11,0,*7E
1499404037.83,11274,16.56,74310.0,5.77,5.05,5.05,0,*79
1499404039.04,11275,16.56,74308.0,5.79,5.01,5.07,0,*70
1499404040.21,11276,16.56,74314.8,5.79,5.07,5.07,0,*75
1499404041.39,11277,16.56,74324.3,5.79,5.07,5.07,0,*74
1499404042.59,11278,16.56,74326.0,5.81,5.11,5.11,0,*7C
1499404043.84,11279,16.56,74328.8,5.81,4.97,4.97,0,*7D
1499404045.06,11280,16.56,74324.5,5.81,4.97,4.89,0,*74
1499404046.26,11281,16.56,74328.3,5.79,4.97,4.89,0,*72
1499404047.51,11282,16.56,74332.5,5.81,4.97,4.97,0,*79
1499404048.71,11283,16.56,74322.8,5.81,4.45,4.57,0,*7B
1499404049.9,11284,16.56,74312.5,5.81,4.19,4.19,0,*7F
1499404051.08,11285,16.56,74316.3,5.83,4.23,4.33,0,*7D
1499404052.27,11286,16.56,74310.5,5.81,4.27,4.27,0,*7D
1499404053.5,11287,16.56,74302.0,5.81,4.27,4.31,0,*7B
1499404054.75,11288,16.56,74292.3,5.81,4.05,4.05,0,*73
1499404056.0,11289,16.56,74292.3,5.81,4.05,4.05,0,*72
1499404057.22,11290,16.56,74286.5,5.81,3.81,3.75,0,*71
1499404058.4,11291,16.56,74284.0,5.79,4.07,4.07,0,*7C
1499404059.58,11292,16.56,74276.5,5.79,3.85,3.81,0,*7B
1499404060.82,11293,16.56,74282.3,5.77,3.79,3.71,0,*78
1499404062.04,11294,16.56,74280.3,5.77,4.01,3.89,0,*70
1499404063.24,11295,16.56,74280.8,5.75,3.81,3.71,0,*7B
1499404064.44,11296,16.56,74284.3,5.77,3.81,3.89,0,*7D
1499404065.62,11297,16.56,74290.5,5.75,4.07,4.07,0,*76
1499404066.79,11298,16.56,74290.3,5.75,4.23,4.27,0,*7D
1499404067.97,11299,16.56,74292.0,5.75,4.37,4.37,0,*78
1499404069.14,11300,16.56,74292.3,5.75,4.45,4.45,0,*79
1499404070.32,11301,16.56,74302.3,5.75,4.37,4.37,0,*78
1499404071.49,11302,16.56,74300.8,5.75,4.45,4.49,0,*77
1499404072.67,11303,16.56,74300.5,5.75,4.37,4.33,0,*7E
1499404073.85,11304,16.56,74306.3,5.75,4.45,4.45,0,*7D
1499404075.02,11305,16.56,74302.0,5.75,4.57,4.57,0,*7C
1499404076.24,11306,16.56,74306.8,5.77,4.31,4.23,0,*7E
1499404077.46,11307,16.56,74308.0,5.75,4.01,3.97,0,*76
1499404078.65,11308,16.56,74306.0,5.73,4.23,4.19,0,*7E
1499404079.85,11309,16.56,74302.8,5.73,4.33,4.37,0,*72
1499404081.04,11310,16.56,74304.8,5.73,4.49,4.49,0,*7E
1499404082.27,11311,16.56,74308.0,5.73,4.59,4.57,0,*71
1499404083.46,11312,16.56,74308.3,5.73,4.49,4.49,0,*7C
1499404084.63,11313,16.56,74310.8,5.79,4.57,4.57,0,*77
1499404085.81,11314,16.56,74312.5,5.75,4.37,4.37,0,*7C
1499404087.01,11315,16.56,74312.3,5.75,4.67,4.57,0,*7E
1499404088.21,11316,16.56,74312.5,5.77,4.53,4.49,0,*77
1499404089.38,11317,16.56,74312.3,5.75,4.45,4.45,0,*7F
1499404090.61,11318,16.56,74316.8,5.75,4.79,4.71,0,*78
1499404091.83,11319,16.56,74314.5,5.75,4.79,4.67,0,*7E
1499404093.02,11320,16.56,74312.0,5.77,4.81,4.81,0,*79
1499404094.25,11321,16.56,74312.0,5.75,4.79,4.67,0,*75
1499404095.42,11322,16.56,74314.5,5.75,4.45,4.23,0,*79
1499404096.64,11323,16.56,74318.3,5.77,4.31,4.15,0,*7C
1499404097.82,11324,16.56,74320.8,5.75,4.07,3.89,0,*7E
1499404098.99,11325,16.56,74316.3,5.75,3.89,3.85,0,*72
1499404100.19,11326,16.56,74316.0,5.77,3.93,3.93,0,*7F
1499404101.39,11327,16.56,74318.3,5.75,3.85,3.79,0,*7F
1499404102.61,11328,16.56,74308.5,5.75,3.79,3.79,0,*73
1499404103.84,11329,16.56,74304.8,5.75,3.67,3.75,0,*71
1499404105.01,11330,16.56,74302.3,5.75,3.63,3.63,0,*7A
1499404106.19,11331,16.56,74302.3,5.75,3.85,3.89,0,*77
1499404107.39,11332,16.56,74310.5,5.73,4.33,4.37,0,*7A
1499404108.58,11333,16.56,74306.8,5.73,4.49,4.49,0,*7F
1499404109.75,11334,16.56,74284.0,5.75,4.37,4.45,0,*7B
1499404110.93,11335,16.56,74276.0,5.75,4.45,4.45,0,*7F
1499404112.15,11336,16.56,74266.8,5.75,4.67,4.71,0,*7B
1499404113.37,11337,16.56,74274.5,5.77,4.59,4.49,0,*7E
1499404114.55,11338,16.56,74290.0,5.75,4.23,4.23,0,*72
1499404115.74,11339,16.56,74296.0,5.77,4.37,4.27,0,*70
1499404116.92,11340,16.56,74308.3,5.75,4.45,4.33,0,*7C
1499404118.09,11341,16.56,74318.5,5.75,4.37,4.19,0,*70
1499404119.31,11342,16.56,74310.5,5.77,4.01,3.89,0,*7A
1499404120.5,11343,16.56,74298.3,5.75,4.01,3.85,0,*75
1499404121.69,11344,16.56,74284.8,5.75,3.63,3.53,0,*7A
1499404122.94,11345,16.56,74276.0,5.73,3.53,3.41,0,*7D
1499404124.14,11346,16.56,74280.8,5.73,3.89,3.85,0,*71
1499404125.33,11347,16.56,74290.3,5.73,3.63,3.55,0,*79